Location: Newark
(45.5167°N, 11.1667°E)
Time: 11:43:21
(UTC+00:00)

Explorer 7 - Pass Details

Date: 20 December 2019
Orbit: 485 x 679 km, 50.3° (Epoch: 22 January)

Event Time Altitude Azimuth Distance (km) Brightness Sun altitude
Rises 12:17:20 0° 246° (WSW) 2,881 11.1 19.5°
Reaches altitude 10° 12:19:35 10° 248° (WSW) 2,006 10.3 19.4°
Maximum altitude 12:24:14 83° 335° (NNW) 663 7.5 19.2°
Drops below altitude 10° 12:29:07 10° 65° (ENE) 2,101 9.4 18.9°
Sets 12:31:31 0° 66° (ENE) 3,028 10.2 18.8°
